Time,TemperatureF,DewpointF,PressureIn,WindDirection,WindDirectionDegrees,WindSpeedMPH,WindSpeedGustMPH,Humidity,HourlyPrecipIn,Conditions,Clouds,dailyrainin,SoftwareType,DateUTC
2013-03-31 09:52:00,48.0,46.0,29.84,West,268,15.0,26.0,93,0.00,,,0.00,,2013-03-31 14:52:00,
2013-03-31 10:03:00,49.0,46.0,29.84,West,263,14.0,24.0,90,0.00,,,0.00,,2013-03-31 15:03:00,
2013-03-31 10:13:00,49.0,46.0,29.84,West,263,14.0,24.0,90,0.00,,,0.00,,2013-03-31 15:13:00,
2013-03-31 10:22:00,50.0,47.0,29.84,WSW,255,10.0,20.0,90,0.00,,,0.00,,2013-03-31 15:22:00,
2013-03-31 10:33:00,51.0,47.0,29.83,WSW,254,13.0,25.0,87,0.00,,,0.00,,2013-03-31 15:33:00,
2013-03-31 10:43:00,51.0,47.0,29.83,WSW,254,13.0,25.0,87,0.00,,,0.00,,2013-03-31 15:43:00,
2013-03-31 10:53:00,51.0,46.0,29.83,West,259,15.0,23.0,84,0.00,,,0.00,,2013-03-31 15:53:00,
2013-03-31 11:03:00,53.0,46.0,29.83,West,259,15.0,23.0,78,0.00,,,0.00,,2013-03-31 16:03:00,
2013-03-31 11:13:00,53.0,46.0,29.83,West,259,15.0,23.0,78,0.00,,,0.00,,2013-03-31 16:13:00,
2013-03-31 11:23:00,53.0,46.0,29.83,West,268,14.0,25.0,77,0.00,,,0.00,,2013-03-31 16:23:00,
2013-03-31 11:33:00,54.0,46.0,29.83,WSW,255,14.0,28.0,74,0.00,,,0.00,,2013-03-31 16:33:00,
2013-03-31 11:43:00,54.0,46.0,29.83,WSW,255,14.0,28.0,74,0.00,,,0.00,,2013-03-31 16:43:00,
2013-03-31 11:53:00,54.0,45.0,29.83,WSW,252,16.0,28.0,71,0.00,,,0.00,,2013-03-31 16:53:00,
2013-03-31 12:03:00,55.0,46.0,29.82,West,266,13.0,25.0,71,0.00,,,0.00,,2013-03-31 17:03:00,
2013-03-31 12:12:00,55.0,46.0,29.82,West,266,13.0,25.0,71,0.00,,,0.00,,2013-03-31 17:12:00,
2013-03-31 12:22:00,56.0,45.0,29.82,West,281,14.0,26.0,67,0.00,,,0.00,,2013-03-31 17:22:00,
2013-03-31 12:32:00,57.0,44.0,29.81,West,260,17.0,29.0,61,0.00,,,0.00,,2013-03-31 17:32:00,
2013-03-31 12:43:00,57.0,44.0,29.81,West,260,17.0,29.0,61,0.00,,,0.00,,2013-03-31 17:43:00,
2013-03-31 12:52:00,57.0,45.0,29.80,WSW,258,16.0,26.0,63,0.00,,,0.00,,2013-03-31 17:52:00,
2013-03-31 13:02:00,58.0,43.0,29.80,West,263,20.0,32.0,57,0.00,,,0.00,,2013-03-31 18:02:00,
2013-03-31 13:13:00,58.0,43.0,29.80,West,263,20.0,32.0,57,0.00,,,0.00,,2013-03-31 18:13:00,
2013-03-31 13:22:00,58.0,43.0,29.80,WSW,256,17.0,35.0,57,0.00,,,0.00,,2013-03-31 18:22:00,
2013-03-31 13:32:00,59.0,44.0,29.79,WSW,252,17.0,30.0,58,0.00,,,0.00,,2013-03-31 18:32:00,
2013-03-31 13:42:00,59.0,44.0,29.79,WSW,252,17.0,30.0,58,0.00,,,0.00,,2013-03-31 18:42:00,
2013-03-31 13:52:00,59.0,42.0,29.79,WSW,240,20.0,30.0,54,0.00,,,0.00,,2013-03-31 18:52:00,
2013-03-31 14:03:00,59.0,44.0,29.79,WSW,250,14.0,29.0,57,0.00,,,0.00,,2013-03-31 19:03:00,
2013-03-31 14:12:00,59.0,44.0,29.79,WSW,250,14.0,29.0,57,0.00,,,0.00,,2013-03-31 19:12:00,
2013-03-31 14:22:00,58.0,41.0,29.79,WSW,252,19.0,32.0,54,0.00,,,0.00,,2013-03-31 19:22:00,
2013-03-31 14:33:00,58.0,40.0,29.79,West,269,16.0,31.0,51,0.00,,,0.00,,2013-03-31 19:33:00,
2013-03-31 14:42:00,58.0,40.0,29.79,West,269,16.0,31.0,51,0.00,,,0.00,,2013-03-31 19:42:00,
2013-03-31 14:53:00,59.0,41.0,29.79,West,259,17.0,28.0,52,0.00,,,0.00,,2013-03-31 19:53:00,
2013-03-31 15:03:00,59.0,41.0,29.78,West,277,15.0,31.0,51,0.00,,,0.00,,2013-03-31 20:03:00,
2013-03-31 15:12:00,59.0,41.0,29.78,West,277,15.0,31.0,51,0.00,,,0.00,,2013-03-31 20:12:00,
2013-03-31 15:22:00,59.0,40.0,29.78,West,276,20.0,33.0,50,0.00,,,0.00,,2013-03-31 20:22:00,
2013-03-31 15:33:00,59.0,40.0,29.78,West,266,18.0,36.0,50,0.00,,,0.00,,2013-03-31 20:33:00,
2013-03-31 15:43:00,59.0,40.0,29.78,West,266,18.0,36.0,50,0.00,,,0.00,,2013-03-31 20:43:00,
2013-03-31 15:52:00,59.0,39.0,29.79,West,262,20.0,33.0,48,0.00,,,0.00,,2013-03-31 20:52:00,
2013-03-31 16:02:00,59.0,40.0,29.78,WSW,256,19.0,32.0,50,0.00,,,0.00,,2013-03-31 21:02:00,
2013-03-31 16:12:00,59.0,40.0,29.78,WSW,256,19.0,32.0,50,0.00,,,0.00,,2013-03-31 21:12:00,
2013-03-31 16:22:00,59.0,39.0,29.79,WSW,257,23.0,36.0,47,0.00,,,0.00,,2013-03-31 21:22:00,
2013-03-31 16:34:00,58.0,39.0,29.79,West,272,20.0,33.0,50,0.00,,,0.00,,2013-03-31 21:34:00,
2013-03-31 16:43:00,58.0,39.0,29.79,West,272,20.0,33.0,50,0.00,,,0.00,,2013-03-31 21:43:00,
2013-03-31 16:53:00,57.0,39.0,29.79,West,261,18.0,35.0,51,0.00,,,0.00,,2013-03-31 21:53:00,
2013-03-31 17:03:00,57.0,36.0,29.79,West,269,20.0,38.0,46,0.00,,,0.00,,2013-03-31 22:03:00,
2013-03-31 17:13:00,57.0,36.0,29.79,West,269,20.0,38.0,46,0.00,,,0.00,,2013-03-31 22:13:00,
2013-03-31 17:23:00,57.0,38.0,29.79,West,259,14.0,26.0,48,0.00,,,0.00,,2013-03-31 22:23:00,
2013-03-31 17:33:00,58.0,37.0,29.80,West,271,17.0,29.0,45,0.00,,,0.00,,2013-03-31 22:33:00,
2013-03-31 17:42:00,58.0,37.0,29.80,West,271,17.0,29.0,45,0.00,,,0.00,,2013-03-31 22:42:00,
2013-03-31 17:53:00,57.0,36.0,29.80,West,267,18.0,37.0,45,0.00,,,0.00,,2013-03-31 22:53:00,
2013-03-31 18:03:00,56.0,36.0,29.81,WSW,257,20.0,33.0,47,0.00,,,0.00,,2013-03-31 23:03:00,
2013-03-31 18:13:00,56.0,36.0,29.81,WSW,257,20.0,33.0,47,0.00,,,0.00,,2013-03-31 23:13:00,
2013-03-31 18:22:00,55.0,35.0,29.81,WSW,254,18.0,37.0,47,0.00,,,0.00,,2013-03-31 23:22:00,
2013-03-31 18:32:00,54.0,36.0,29.82,WNW,288,17.0,32.0,50,0.00,,,0.00,,2013-03-31 23:32:00,
2013-03-31 18:42:00,54.0,36.0,29.82,WNW,288,17.0,32.0,50,0.00,,,0.00,,2013-03-31 23:42:00,
2013-03-31 18:53:00,54.0,37.0,29.82,West,272,16.0,25.0,52,0.00,,,0.00,,2013-03-31 23:53:00,
2013-03-31 19:02:00,53.0,37.0,29.83,West,273,15.0,29.0,54,0.00,,,0.00,,2013-04-01 00:02:00,
2013-03-31 19:12:00,53.0,37.0,29.83,West,273,15.0,29.0,54,0.00,,,0.00,,2013-04-01 00:12:00,
2013-03-31 19:22:00,53.0,37.0,29.83,West,276,14.0,22.0,55,0.00,,,0.00,,2013-04-01 00:22:00,
2013-03-31 19:32:00,52.0,37.0,29.83,West,265,13.0,22.0,56,0.00,,,0.00,,2013-04-01 00:32:00,
2013-03-31 19:42:00,52.0,37.0,29.83,West,265,13.0,22.0,56,0.00,,,0.00,,2013-04-01 00:42:00,
2013-03-31 19:52:00,51.0,36.0,29.84,West,269,13.0,22.0,56,0.00,,,0.00,,2013-04-01 00:52:00,
2013-03-31 20:03:00,49.0,34.0,29.85,West,278,14.0,23.0,56,0.00,,,0.00,,2013-04-01 01:03:00,
2013-03-31 20:12:00,49.0,34.0,29.85,West,278,14.0,23.0,56,0.00,,,0.00,,2013-04-01 01:12:00,
2013-03-31 20:22:00,49.0,33.0,29.85,West,281,14.0,25.0,54,0.00,,,0.00,,2013-04-01 01:22:00,
2013-03-31 20:32:00,46.0,36.0,29.86,WNW,295,16.0,24.0,67,0.00,,,0.00,,2013-04-01 01:32:00,
2013-03-31 20:42:00,46.0,36.0,29.86,WNW,295,16.0,24.0,67,0.00,,,0.00,,2013-04-01 01:42:00,
2013-03-31 20:52:00,45.0,37.0,29.87,WNW,289,13.0,23.0,74,0.00,,,0.00,,2013-04-01 01:52:00,
2013-03-31 21:03:00,44.0,37.0,29.88,WNW,293,13.0,26.0,75,0.00,,,0.00,,2013-04-01 02:03:00,
2013-03-31 21:12:00,44.0,37.0,29.88,WNW,293,13.0,26.0,75,0.00,,,0.00,,2013-04-01 02:12:00,
2013-03-31 21:22:00,43.0,36.0,29.89,WNW,293,15.0,24.0,75,0.00,,,0.00,,2013-04-01 02:22:00,
2013-03-31 21:33:00,43.0,36.0,29.90,WNW,294,13.0,21.0,75,0.00,,,0.00,,2013-04-01 02:33:00,
2013-03-31 21:42:00,43.0,36.0,29.90,WNW,294,13.0,21.0,75,0.00,,,0.00,,2013-04-01 02:42:00,
2013-03-31 21:52:00,43.0,35.0,29.90,WNW,292,16.0,26.0,74,0.00,,,0.00,,2013-04-01 02:52:00,
2013-03-31 22:03:00,42.0,35.0,29.91,WNW,298,12.0,21.0,76,0.00,,,0.00,,2013-04-01 03:03:00,
2013-03-31 22:12:00,42.0,35.0,29.91,WNW,298,12.0,21.0,76,0.00,,,0.00,,2013-04-01 03:12:00,
2013-03-31 22:22:00,42.0,35.0,29.91,WNW,292,12.0,20.0,76,0.00,,,0.00,,2013-04-01 03:22:00,
2013-03-31 22:34:00,42.0,35.0,29.91,WNW,292,9.0,16.0,76,0.00,,,0.00,,2013-04-01 03:34:00,
2013-03-31 22:43:00,42.0,35.0,29.91,WNW,292,9.0,16.0,76,0.00,,,0.00,,2013-04-01 03:43:00,
2013-03-31 22:53:00,42.0,35.0,29.91,West,280,14.0,18.0,76,0.00,,,0.00,,2013-04-01 03:53:00,
2013-03-31 23:03:00,42.0,34.0,29.92,WNW,288,15.0,32.0,74,0.00,,,0.00,,2013-04-01 04:03:00,
2013-03-31 23:13:00,42.0,34.0,29.92,WNW,288,15.0,32.0,74,0.00,,,0.00,,2013-04-01 04:13:00,
2013-03-31 23:23:00,41.0,33.0,29.92,West,278,15.0,24.0,74,0.00,,,0.00,,2013-04-01 04:23:00,
2013-03-31 23:33:00,41.0,33.0,29.93,WNW,285,15.0,29.0,73,0.00,,,0.00,,2013-04-01 04:33:00,
2013-03-31 23:43:00,41.0,33.0,29.93,WNW,285,15.0,29.0,73,0.00,,,0.00,,2013-04-01 04:43:00,
2013-03-31 23:53:00,40.0,32.0,29.93,WNW,292,16.0,28.0,73,0.00,,,0.00,,2013-04-01 04:53:00,